SES-5

Last updated on Mon Nov 03 2025 00:02:57 GMT+0000 (Coordinated Universal Time)

1 38652U 12036A 25306.32479419 .00000046 00000+0 00000+0 0 9999 2 38652 0.0612 299.0566 0002103 278.2214 306.5112 1.00270461 42199
UTC large
Height (km)
Speed (km/s)
/
Latitude / Longitude
Inclination (degrees)
Orbital Period (minutes)
Azimuth
Elevation
Range (km)
Doppler Factor

Next 0 passes for location: London (51.5072 / 0.1276)

Sorry there are no passes over London.